GEFSSGP_500_meanwind_312.txt.gz
Wind_Speed
3 3 3 3 3 4 5 5 6 6 6 6 6 6 7 7 7 7 7 7 7 7 7 7 6 6 6 5 5 4 5 5 5 5 5 5 6 6 7 8 9 9 9 10 10 10 9 9 9
3 3 3 3 3 4 5 5 6 6 7 6 6 6 7 7 7 7 7 7 7 7 7 8 7 7 7 6 6 5 5 5 5 5 6 6 7 7 8 8 9 9 10 10 11 10 10 10 10
2 3 3 4 4 5 5 5 6 6 6 6 6 7 7 8 8 7 7 6 6 6 7 7 7 7 7 7 7 6 6 6 6 6 6 7 9 9 9 9 9 10 10 10 11 11 11 11 11
3 3 3 4 4 4 4 5 6 6 6 6 6 6 7 7 8 8 8 7 7 7 7 8 8 8 8 7 8 7 7 7 7 7 8 8 9 10 11 10 10 10 10 10 10 11 11 11 12
2 3 3 4 4 5 4 5 6 6 6 6 6 6 6 6 7 8 8 8 7 7 7 7 7 7 8 8 8 7 7 8 8 8 8 8 8 8 9 10 10 10 10 10 11 11 11 11 11
2 3 3 4 4 4 5 5 6 6 5 6 6 6 5 6 5 6 7 7 7 7 6 7 7 7 7 8 8 7 7 7 8 8 8 7 6 7 8 10 10 10 11 11 11 11 12 11 11
2 2 3 4 4 4 4 4 4 5 5 5 5 5 5 5 4 4 5 6 6 6 6 6 6 7 7 7 7 7 7 7 7 7 7 7 6 6 7 9 10 11 11 11 11 12 12 12 12
2 2 3 3 3 3 3 2 3 3 4 4 4 4 4 4 4 4 4 4 5 5 6 6 7 7 7 7 7 7 7 7 7 7 7 7 7 7 7 9 10 10 11 12 12 12 13 12 12
2 2 2 3 3 3 2 2 2 2 3 4 4 4 4 4 4 4 4 5 5 5 6 6 7 7 7 7 7 7 7 7 7 7 7 7 7 8 8 9 9 10 11 12 13 13 13 13 12
2 2 2 3 3 3 2 2 2 3 3 3 3 3 3 4 4 4 4 4 4 4 4 5 5 6 7 8 8 7 7 7 7 7 7 7 8 8 9 10 10 11 11 11 12 12 13 13 13
3 3 3 3 3 3 3 3 3 2 3 3 3 3 4 3 3 4 4 4 4 4 4 4 5 5 5 5 6 7 7 7 7 8 8 8 9 9 9 10 10 11 12 12 12 12 13 14 13
4 4 4 3 3 3 3 3 3 3 3 4 4 4 4 4 4 4 4 4 4 4 4 4 4 4 5 5 5 5 6 6 6 7 7 7 8 9 10 10 10 10 11 11 12 13 13 13 13
4 4 4 4 4 4 4 3 4 4 4 4 5 5 5 5 5 5 5 5 5 5 5 5 5 4 4 5 5 5 5 5 6 6 6 7 7 8 9 10 10 10 11 11 11 12 12 13 13
4 4 5 5 5 4 4 4 5 5 5 5 5 5 6 5 5 5 5 5 5 5 5 5 5 5 5 5 5 4 4 5 6 6 6 7 7 8 8 9 10 10 10 10 10 11 11 12 13
4 5 5 5 6 6 5 5 5 5 6 6 6 6 6 6 6 6 6 6 6 6 6 6 6 6 6 6 5 5 5 6 6 6 7 8 8 8 9 9 10 10 10 10 11 11 11 11 12
5 5 6 6 6 6 6 6 6 6 7 7 7 7 7 7 8 7 7 6 6 6 6 6 6 6 7 7 7 6 6 7 7 7 8 8 9 9 9 9 10 10 11 11 10 11 11 11 12
6 6 7 7 7 7 7 7 8 8 8 8 8 8 8 8 9 8 8 7 7 7 7 8 7 7 7 7 8 7 8 8 8 8 8 9 9 9 9 10 10 10 10 10 10 11 11 11 12
7 8 8 9 8 9 9 9 9 9 8 8 8 8 9 9 9 9 9 9 9 9 9 9 9 9 9 8 8 8 8 8 8 9 9 9 9 9 9 10 10 10 11 11 11 11 11 11 12
8 9 9 10 10 10 10 10 10 10 9 9 9 9 9 9 10 10 10 10 10 10 10 10 10 10 10 10 9 9 9 9 10 10 10 10 10 11 10 10 10 10 11 11 11 12 12 12 12
9 9 10 10 10 10 10 10 10 11 11 11 10 10 10 11 11 11 11 11 11 12 12 12 11 11 11 11 11 11 11 11 11 11 11 11 11 12 12 11 11 11 11 11 12 12 12 13 13
10 10 10 11 11 11 10 11 11 11 12 12 11 11 11 11 12 12 13 13 13 13 13 13 13 13 13 13 13 13 13 13 12 12 12 12 12 12 12 12 12 12 12 12 12 12 12 13 13
11 11 10 11 11 12 12 12 11 12 12 12 12 13 12 12 13 13 13 14 14 14 14 14 14 14 14 14 14 14 14 14 14 14 14 13 13 12 12 13 13 13 12 12 12 12 12 13 13
11 11 11 11 11 12 12 12 12 12 12 12 13 13 14 14 14 14 14 14 15 15 15 15 15 15 15 15 15 15 15 15 15 15 15 14 13 13 13 13 13 13 13 13 13 13 13 13 13
12 11 12 11 12 12 12 12 12 12 12 13 13 13 14 14 15 15 15 15 15 15 16 16 16 16 16 16 16 16 16 16 16 16 16 15 15 15 15 15 14 14 14 14 14 13 13 13 13
12 12 12 12 12 12 12 13 12 12 12 12 13 13 14 14 15 15 15 16 16 16 16 17 17 16 16 16 16 16 17 17 17 17 17 17 17 17 16 16 15 15 15 14 14 14 14 14 14
13 13 13 13 12 13 13 14 13 12 12 12 13 13 14 14 14 14 14 15 15 16 16 17 17 17 16 16 16 17 17 18 18 18 18 18 18 18 18 17 16 16 16 15 15 15 15 15 15
13 13 13 13 14 14 14 14 14 14 13 13 13 13 13 13 14 14 15 15 16 16 16 17 17 17 17 17 17 18 18 18 18 18 19 19 19 19 18 18 18 18 17 17 17 17 17 17 17
13 13 14 14 15 15 14 14 15 15 14 14 14 14 14 14 15 15 16 16 16 17 17 17 18 18 18 18 18 18 18 19 19 19 19 19 19 19 19 19 19 18 18 18 18 18 18 18 18
14 14 14 15 15 15 15 15 15 15 14 14 14 15 15 15 16 16 17 17 17 17 17 18 18 18 19 19 19 19 19 19 19 20 20 19 19 19 19 19 19 18 18 18 18 18 18 18 18
15 15 15 16 16 16 16 16 17 16 16 15 15 15 15 16 16 17 17 17 17 17 17 17 18 19 19 19 20 20 20 20 20 20 20 19 18 18 18 18 18 18 18 19 19 18 18 18 18

GEFSSGP_500_meanwind_318.txt.gz
Wind_Speed
2 2 2 3 3 4 5 6 6 6 7 7 8 9 9 9 9 9 9 8 8 8 8 8 8 7 7 6 6 6 6 6 5 4 4 6 6 7 7 7 8 8 9 9 9 9 9 9 8
1 2 3 3 3 4 5 5 6 6 7 8 8 9 9 9 10 10 10 10 10 9 9 9 9 8 7 7 7 7 6 6 6 6 5 6 6 7 7 8 8 8 9 9 10 10 11 11 10
2 3 3 3 3 5 5 5 6 7 7 8 9 9 9 9 10 10 10 10 10 9 9 9 8 8 8 8 8 8 7 7 7 7 7 7 7 8 8 8 8 8 9 9 10 10 11 11 11
3 3 3 3 4 4 5 6 6 8 8 8 9 9 9 9 10 10 10 10 10 9 9 9 8 9 9 9 9 9 8 8 8 8 8 8 9 9 9 9 9 9 10 10 11 11 11 11 11
3 3 3 4 5 5 6 7 7 7 8 8 8 8 8 8 8 9 9 9 9 9 9 9 8 8 8 8 9 8 8 8 8 8 9 9 9 9 9 9 9 9 10 11 11 11 11 11 11
3 3 3 5 5 5 5 6 7 6 7 7 7 7 7 7 7 8 8 8 9 9 9 8 8 8 7 8 8 8 8 8 8 8 8 9 9 10 10 10 9 9 10 10 11 11 11 11 11
3 4 4 5 5 5 5 6 6 7 7 6 7 6 5 6 7 7 8 8 8 9 8 8 8 8 8 7 8 8 8 8 7 7 8 8 9 9 9 10 9 10 10 10 11 11 12 12 12
4 5 5 5 6 6 5 5 6 6 6 6 6 6 6 6 6 7 7 7 7 7 8 8 8 8 8 7 7 7 8 8 8 8 8 8 7 8 8 9 10 10 11 11 12 12 12 13 13
4 5 6 6 6 6 5 5 5 5 5 5 5 5 6 6 6 6 6 6 6 6 6 7 7 7 7 7 7 7 7 7 7 7 8 7 7 7 8 9 10 10 11 11 12 13 13 13 13
5 6 6 6 6 5 5 5 5 4 4 5 5 4 5 5 5 5 5 5 5 6 6 6 6 6 7 7 8 7 7 7 7 7 8 8 8 8 8 9 10 11 11 12 12 13 13 13 13
5 6 6 6 6 5 5 5 5 5 5 5 5 5 5 5 5 5 5 5 5 6 6 6 7 7 7 7 7 7 8 8 8 7 8 8 9 9 9 10 11 11 12 12 12 13 13 13 13
5 6 5 5 5 5 5 6 6 6 6 6 6 6 5 5 5 5 5 5 6 6 6 6 7 7 7 7 7 7 8 8 8 7 7 8 9 9 9 10 10 11 11 12 12 12 13 13 13
5 5 5 4 4 5 5 6 7 7 7 7 7 7 6 6 6 6 7 7 7 7 7 7 7 7 7 7 7 8 8 8 8 8 8 8 9 10 10 10 10 11 11 12 12 12 13 13 13
5 5 5 5 5 6 6 6 7 7 8 7 7 7 6 6 7 7 7 8 8 8 7 8 8 8 7 7 8 8 8 8 8 8 8 8 8 9 10 10 10 11 11 11 11 11 12 12 12
5 5 5 5 6 7 7 7 7 8 8 8 8 8 7 6 7 7 7 7 8 8 8 8 8 8 8 7 7 8 8 8 8 8 8 8 8 9 10 10 10 11 11 11 11 11 11 11 11
5 5 6 6 7 8 8 8 8 8 8 9 9 8 8 7 8 8 8 8 9 8 8 9 9 9 8 8 8 8 8 8 8 9 9 9 9 10 10 10 10 11 10 10 10 10 10 10 11
5 6 8 8 7 8 9 9 9 9 9 10 9 9 9 9 9 9 10 10 10 10 10 10 10 10 9 9 9 9 9 9 9 9 10 11 11 11 11 10 11 10 10 10 10 10 10 10 11
7 8 9 9 9 10 10 10 10 9 10 11 10 10 10 10 10 10 10 11 11 11 11 10 10 10 10 10 10 10 10 10 10 10 10 11 12 12 13 13 12 11 11 11 11 11 11 11 11
8 9 10 10 10 11 11 11 11 10 11 11 11 11 11 11 11 11 11 11 11 11 12 11 11 11 11 11 11 11 11 11 11 11 12 12 12 13 13 14 13 13 12 12 12 12 12 12 12
10 10 10 10 11 12 12 11 11 11 11 12 12 12 12 12 11 11 11 11 12 12 13 13 13 13 12 12 12 12 12 12 12 13 13 13 13 13 13 13 13 14 14 13 13 13 13 13 13
11 11 11 12 12 13 13 12 12 11 11 11 13 13 13 13 12 12 12 12 12 13 13 13 13 13 13 13 13 13 13 13 14 14 14 14 14 14 14 14 14 14 14 14 14 14 14 13 13
12 12 12 12 13 13 13 13 12 13 12 12 13 13 13 14 13 12 13 12 13 13 13 13 14 14 13 13 14 14 14 14 14 15 15 14 14 15 15 15 15 15 15 14 14 14 13 13 13
13 12 12 12 13 13 13 13 14 13 13 13 14 14 14 14 14 14 14 14 13 14 14 13 14 14 14 14 14 15 15 15 15 16 16 16 16 16 16 16 16 16 15 15 14 14 14 14 14
13 13 13 13 13 13 13 14 15 14 15 15 15 14 15 15 14 14 14 14 13 13 13 14 14 14 15 15 15 15 15 16 16 16 17 17 17 17 17 17 17 16 16 16 15 15 15 14 14
14 13 12 12 12 14 14 15 17 15 16 16 16 15 14 15 15 15 15 15 15 14 14 14 15 15 16 16 16 16 16 17 17 17 17 17 17 18 18 17 17 17 17 17 16 16 16 15 15
14 14 13 12 11 13 14 17 18 16 17 17 17 17 16 16 16 16 15 15 15 15 15 15 15 16 16 16 17 17 17 17 17 18 18 18 18 18 18 18 18 17 17 17 17 17 16 16 16
15 15 14 14 13 13 14 17 17 17 16 18 18 17 17 16 16 16 16 15 16 15 15 16 16 16 16 17 17 17 17 18 18 18 18 18 18 19 19 19 18 18 18 18 17 17 17 17 17
15 16 15 16 16 15 14 16 17 16 16 17 18 18 18 17 17 16 17 16 15 15 16 16 16 16 16 17 17 18 18 19 19 19 19 19 19 19 19 19 19 19 19 18 17 17 17 17 17
16 16 16 17 17 17 17 18 18 16 17 17 17 17 16 17 17 16 17 17 17 16 16 17 17 17 17 17 18 18 18 19 19 19 19 19 19 19 19 19 19 18 18 18 17 17 18 17 17
17 17 17 18 18 19 19 20 19 19 17 18 17 15 16 17 17 17 18 18 18 17 17 17 18 17 17 18 18 18 18 19 19 19 19 19 20 20 20 19 19 18 18 18 18 17 18 18 18

GEFSSGP_500_meanwind_324.txt.gz
Wind_Speed
3 3 4 4 4 4 5 5 5 5 5 5 5 5 6 6 6 7 7 6 6 5 5 5 5 5 5 5 4 4 3 4 4 5 6 5 5 6 6 8 9 9 9 8 8 9 9 9 8
3 3 3 4 3 4 5 5 5 4 4 4 5 5 6 6 7 7 7 7 7 7 6 6 6 6 5 5 5 5 4 4 5 5 5 5 5 6 7 8 8 9 9 9 9 9 9 10 10
4 3 3 4 4 4 4 5 5 4 3 4 5 5 5 5 6 7 7 7 7 7 7 7 6 6 6 6 6 6 5 5 5 5 5 5 6 7 7 8 8 9 10 10 10 10 10 10 11
4 4 4 5 5 4 4 5 5 4 5 5 5 5 6 6 6 7 7 7 7 7 7 7 7 7 6 6 6 6 6 6 6 6 6 6 7 7 7 8 8 8 9 9 10 10 10 11 11
4 5 5 6 5 4 4 5 4 4 5 5 5 6 5 5 6 6 6 6 7 7 7 7 7 6 7 7 6 7 7 7 7 6 7 7 7 7 8 8 8 9 9 10 10 10 10 10 11
5 6 6 6 6 5 4 4 3 3 4 4 5 5 5 5 5 5 5 6 6 7 6 6 6 6 6 6 6 6 7 7 7 7 7 8 8 8 9 8 8 8 9 9 9 10 9 9 10
6 6 6 6 6 6 4 4 3 3 4 4 4 4 4 4 4 5 5 5 4 5 5 6 6 6 6 5 6 5 6 6 6 7 7 8 9 10 10 9 9 9 9 9 10 10 10 10 10
6 6 6 6 6 5 4 4 4 3 3 3 3 3 3 3 3 3 4 3 3 3 4 4 4 5 5 5 5 5 5 5 6 6 7 8 8 8 9 9 9 9 9 10 10 10 10 10 11
5 5 6 5 5 5 5 4 3 2 3 3 2 2 3 3 2 3 3 3 3 3 3 4 3 3 4 4 4 5 5 5 6 6 6 6 6 6 6 7 8 9 10 10 10 11 11 11 11
4 4 4 4 5 4 4 3 2 2 2 2 2 2 2 2 3 3 2 2 2 2 3 3 3 3 4 4 4 5 5 5 5 5 5 5 5 5 6 7 8 9 9 10 10 11 11 11 11
4 4 4 4 3 3 2 2 2 2 2 2 2 3 2 2 3 3 3 3 3 3 3 3 3 4 4 4 5 5 6 6 6 5 5 5 5 5 6 7 7 8 8 9 10 9 10 10 11
5 4 4 3 2 2 2 3 2 1 2 3 3 3 3 4 3 4 4 3 3 3 3 3 3 4 4 4 4 5 5 5 5 5 5 5 5 6 6 7 7 7 8 8 9 9 10 10 11
4 4 3 3 3 3 3 3 3 2 3 3 4 4 4 4 4 4 5 4 4 3 3 3 3 4 4 4 4 4 5 5 5 5 5 5 5 6 6 6 7 7 7 8 9 9 10 10 11
4 3 3 3 3 3 4 3 3 3 4 4 4 5 5 5 5 5 5 5 5 5 5 5 4 4 5 5 5 5 5 5 5 5 4 5 5 5 6 7 7 7 8 9 9 9 10 10 11
4 3 3 4 4 4 4 4 4 4 5 5 5 5 5 5 6 6 6 6 5 6 6 6 6 6 6 5 6 6 6 6 5 5 5 5 5 6 6 7 8 8 8 8 9 9 9 9 10
4 4 4 4 5 5 5 5 5 6 6 6 5 5 6 6 6 6 6 6 7 7 7 6 6 6 6 6 6 6 6 6 6 6 6 5 6 7 8 8 8 8 8 8 8 8 9 9 10
5 5 5 5 6 6 5 5 6 7 6 6 6 6 6 6 7 7 7 7 7 7 7 7 7 7 7 7 7 7 7 7 6 6 7 8 7 7 8 8 9 9 9 8 8 8 9 9 10
5 5 5 5 5 6 5 5 6 6 6 6 6 6 7 6 7 7 7 7 7 7 7 7 7 7 8 8 7 7 7 7 7 7 8 9 10 9 8 9 9 9 9 10 9 9 9 9 10
6 6 6 6 6 7 6 6 6 6 6 6 6 7 7 7 7 7 7 7 7 7 7 7 7 7 7 7 7 8 8 8 8 8 9 9 10 10 10 9 9 10 10 10 10 10 10 10 10
8 8 8 8 8 8 8 8 7 7 7 6 6 7 7 7 7 7 7 8 8 8 8 8 8 8 8 8 8 8 9 9 9 9 10 10 10 11 11 11 11 11 11 11 11 11 11 11 11
9 9 9 8 8 9 10 9 7 7 7 7 7 7 8 8 8 8 8 8 9 8 8 9 9 10 10 10 9 9 10 10 10 10 10 11 11 11 12 12 12 12 12 12 12 12 12 12 12
10 10 10 10 10 10 10 10 8 8 7 7 8 8 8 9 9 9 9 9 9 9 9 10 10 10 10 10 11 11 11 11 11 11 11 11 12 12 13 13 13 13 13 13 13 13 12 12 12
10 11 11 10 11 12 12 12 10 10 9 8 8 9 9 10 10 10 10 10 9 10 10 10 10 10 11 12 12 12 12 12 12 12 12 12 13 13 13 13 13 13 14 14 14 14 13 13 13
11 11 12 12 13 13 12 12 11 11 10 10 9 10 10 11 11 10 11 12 11 11 10 10 11 11 11 12 12 12 12 12 13 13 13 13 13 13 14 14 14 14 14 14 14 14 14 13 13
12 13 13 14 14 14 12 13 12 11 11 11 11 11 11 11 11 11 11 12 11 11 11 11 12 12 12 12 13 13 13 14 13 13 13 13 13 14 14 14 14 14 14 14 14 14 14 14 13
13 14 14 15 15 15 14 14 12 13 13 12 12 13 13 12 12 11 12 12 12 12 12 12 12 12 13 13 13 14 14 14 14 13 13 13 14 14 14 14 14 14 15 14 15 15 15 14 14
14 15 15 16 16 16 15 15 14 13 13 12 12 13 13 12 12 11 12 13 13 13 13 13 13 13 13 13 14 14 15 15 14 14 14 15 15 15 15 15 15 15 15 15 15 15 15 14 14
15 15 15 16 17 17 17 15 14 14 13 13 13 13 13 12 12 12 12 13 13 14 14 14 14 14 14 14 14 15 15 15 15 15 15 16 16 16 16 16 16 16 15 15 15 15 15 15 15
15 14 15 16 17 17 17 16 14 14 14 14 13 14 14 13 13 13 13 13 14 14 14 14 15 15 15 15 15 15 15 15 15 15 16 16 17 17 17 17 17 17 16 16 16 16 16 16 16
15 14 14 15 16 17 18 17 15 15 15 15 14 14 14 15 14 14 14 14 14 15 15 15 15 15 16 16 16 16 16 16 16 16 16 17 17 17 18 17 18 17 17 17 17 16 17 16 16

GEFSSGP_500_meanwind_330.txt.gz
Wind_Speed
2 2 3 4 4 4 4 5 4 5 6 6 6 6 5 5 5 6 6 6 6 6 5 5 4 4 4 3 3 3 3 2 3 3 3 4 4 5 5 6 5 6 6 6 6 6 6 6 7
3 3 3 3 4 4 4 5 5 5 5 6 6 6 5 5 5 5 6 6 6 6 6 6 5 5 4 4 4 4 3 3 4 4 4 4 4 4 5 6 6 7 7 7 7 7 8 8 8
3 3 4 4 4 4 4 5 5 5 6 6 6 6 6 6 5 5 6 6 6 6 6 6 6 5 5 5 5 5 5 5 4 4 4 4 4 4 5 6 7 7 7 8 9 9 9 9 9
3 4 4 4 4 4 5 5 5 6 6 6 6 6 6 6 5 6 6 6 6 6 6 6 6 6 5 5 6 6 5 5 4 5 4 4 4 4 5 6 6 7 7 8 9 10 10 10 11
4 4 5 5 5 5 5 6 6 6 6 6 6 6 5 5 6 6 6 7 7 6 6 7 6 6 6 5 5 5 5 5 5 5 5 5 5 5 6 6 7 7 8 9 10 10 10 10 10
4 4 5 5 6 6 6 6 6 5 5 5 5 5 5 5 5 6 6 7 7 7 7 6 6 6 6 5 5 6 5 5 5 5 6 6 6 6 7 7 8 8 9 9 10 10 10 11 11
5 5 5 6 6 6 6 6 6 5 5 4 5 5 5 5 5 5 5 6 6 6 6 5 5 5 5 5 5 5 6 6 6 6 7 7 7 7 8 9 9 9 9 10 10 10 11 11 11
5 5 5 5 6 6 6 5 5 5 5 4 4 4 4 4 4 4 4 5 5 5 4 4 5 5 5 5 5 6 6 6 6 7 7 8 8 9 8 9 10 10 10 11 10 11 11 11 12
5 5 5 5 5 5 5 5 4 5 4 4 4 4 4 4 3 3 3 4 4 4 4 4 4 4 5 6 6 6 6 6 6 6 7 8 9 9 9 9 10 9 9 10 10 11 11 11 11
5 5 5 5 5 5 5 5 4 4 4 4 4 4 4 4 3 2 3 3 3 3 4 4 4 4 4 5 5 5 6 6 6 5 6 6 7 8 8 8 8 9 9 10 10 11 11 11 11
4 5 5 5 5 4 4 4 3 3 3 3 3 3 3 3 3 3 3 3 3 3 4 5 5 5 5 5 5 5 5 5 6 6 6 6 6 6 6 7 7 8 9 9 10 10 10 11 11
5 5 5 5 4 4 3 3 3 3 3 3 3 3 4 4 4 4 4 4 4 4 4 5 5 5 5 5 6 7 7 6 6 6 5 6 6 6 6 6 7 8 8 9 9 10 10 10 11
5 5 5 5 5 4 4 3 3 4 4 4 3 4 4 5 5 5 5 5 5 5 5 5 5 6 6 6 6 7 7 7 6 6 5 6 6 6 6 7 7 7 8 8 9 9 10 11 12
6 6 5 5 5 4 4 4 4 4 4 4 4 5 5 5 5 5 6 6 5 6 5 5 6 6 6 6 6 7 7 7 7 6 6 6 6 6 6 6 7 7 7 8 8 9 10 10 11
6 6 6 6 6 5 5 5 4 4 4 5 5 5 5 6 6 6 6 7 6 6 6 6 6 7 7 7 7 7 7 8 8 8 7 6 7 7 7 7 7 7 7 8 8 9 9 10 10
6 6 6 6 6 5 5 5 5 5 5 5 6 5 5 6 6 6 6 6 6 6 6 7 7 7 7 8 8 7 7 7 8 8 7 7 7 7 8 8 8 8 8 9 9 9 10 10 10
6 6 6 6 6 6 6 6 6 6 6 6 6 6 6 6 6 5 6 6 6 7 7 7 8 7 7 8 8 7 7 7 7 8 8 8 8 8 8 8 9 9 9 10 10 10 10 10 10
7 7 6 7 7 7 7 7 7 7 7 7 7 7 7 6 7 6 6 6 6 7 7 8 9 8 8 8 8 8 8 8 8 8 8 8 8 8 8 8 9 10 10 10 10 11 11 11 11
8 8 8 8 8 9 9 8 8 8 8 8 8 8 8 8 7 7 7 7 8 8 8 8 8 8 8 8 9 9 9 9 9 9 9 9 9 9 9 9 10 10 11 11 12 12 12 12 12
9 9 9 9 9 9 9 9 8 8 9 9 9 9 8 9 8 8 8 8 9 8 8 8 8 8 9 9 10 10 9 9 9 9 9 9 10 10 10 10 11 11 11 12 12 12 13 14 14
10 10 9 9 10 11 11 10 10 9 9 9 10 10 10 9 9 9 9 9 9 9 8 8 9 9 9 9 10 10 9 9 9 10 10 10 10 11 11 11 10 11 11 12 13 13 13 13 14
11 10 11 11 11 11 12 11 11 10 10 11 11 11 11 10 10 10 9 9 9 9 9 9 9 9 9 9 9 9 9 9 10 10 11 11 11 11 11 12 12 12 11 12 13 13 13 14 14
11 11 12 12 13 12 12 12 11 11 11 12 12 12 12 12 12 11 10 11 10 10 10 11 11 10 10 10 10 10 10 11 11 11 11 11 11 11 11 12 12 12 12 12 12 13 13 14 14
12 12 13 14 14 13 13 13 11 12 12 13 13 13 13 13 13 13 12 12 12 12 12 12 12 11 11 10 10 10 11 11 11 12 12 12 12 12 12 12 13 13 12 12 12 12 13 13 13
12 13 14 15 15 14 14 14 12 12 13 14 14 14 14 14 14 14 14 13 13 13 12 12 13 12 12 12 11 12 11 12 12 13 13 13 13 13 13 13 13 13 13 13 13 13 13 13 13
13 14 15 17 16 15 15 15 14 14 15 15 15 15 15 15 15 15 15 14 14 13 13 13 13 12 12 12 12 12 12 13 13 13 13 13 14 14 14 14 13 13 14 14 14 14 14 14 14
15 15 16 17 18 17 17 16 15 15 14 15 15 15 16 16 16 16 15 15 15 14 14 14 14 14 13 12 13 13 13 13 13 14 14 14 15 15 15 15 14 15 15 15 15 15 14 14 15
16 17 17 18 19 18 17 16 15 14 14 15 15 15 15 16 16 16 16 15 15 15 15 16 15 15 14 15 14 14 14 14 15 15 15 15 15 15 16 16 15 15 15 15 15 15 15 15 15
17 17 17 18 19 19 18 16 15 15 15 15 15 15 15 16 17 17 17 17 17 17 17 17 16 16 15 15 15 16 16 16 16 16 16 16 16 16 16 16 16 16 16 16 16 16 16 16 16
17 17 18 18 19 19 18 16 15 15 15 15 16 16 16 16 17 17 18 17 17 18 18 18 18 17 17 16 16 17 17 17 17 17 17 17 17 17 16 17 17 18 17 17 17 17 17 17 16